sat.trackr.live / text

‹ back to catalog

STARLINK-37254

NORAD 68553 · 2026-070M

PAYLOAD ACTIVE UNKNOWN

§ Identity

Operator
Country
US
Launch date
2026-04-02
Launch site
AFETR
Launch vehicle
Mass (kg)
RCS (m²)

Purposes: comms

External: N2YO · Heavens-Above · Gunter

§ Orbital elements

Epoch: 2026-05-25T01:19:06.449664Z

Period
93.85 min
Inclination
53.1595°
Eccentricity
0.0001071
Mean motion
15.34407922 rev/d
Perigee alt
461.9 km
Apogee alt
463.4 km
Semi-major
6,840.8 km
B*
7.0085e-4
RAAN
7.3762°
Arg perigee
68.5586°
Mean anomaly
291.5531°
Rev number
825

§ Raw data

STARLINK-372541 68553U 26070M   26145.05493576  .00023383  00000+0  70085-3 0  99902 68553  53.1595   7.3762 0001071  68.5586 291.5531 15.34407922  8257

JSON: /api/v1/satellites/68553 · /tle

For live sub-satellite position, see the globe view (requires WebGL).

§ Visibility from observer

Set your observer location to see the next 7 days of passes ≥ 10°. The values pass through the URL so the page stays shareable.

No JS? Fill the form by hand. The geolocation button needs JavaScript.